• In Uzbekistan
  • List of Countries
  • For 7 days
  • Water Temperature
  • Satellite Maps
  • Weather Map
  • Weather Widgets
  • user-avatar
    Login

    Hourly Weather Wallenhorst

    Today, 20 January, Saturday

    Time Temperature Precipitation Wind Pressure Humidity
    00:00 -1°C° 0 mm 4 mps 747 mmHg 91%
    01:00 -1°C° 0 mm 4 mps 747 mmHg 91%
    02:00 -1°C° 0 mm 4 mps 746 mmHg 91%
    03:00 -1°C° 0 mm 5 mps 746 mmHg 92%
    04:00 -1°C° 0 mm 5 mps 746 mmHg 92%
    05:00 -1°C° 0 mm 5 mps 746 mmHg 92%
    06:00 -2°C° 0 mm 5 mps 746 mmHg 92%
    07:00 -2°C° 0 mm 4 mps 745 mmHg 93%
    08:00 -2°C° 0.1 mm 5 mps 745 mmHg 92%
    09:00 -1°C° 0.1 mm 5 mps 745 mmHg 91%
    10:00 -1°C° 0.1 mm 5 mps 745 mmHg 90%
    11:00 -1°C° 0 mm 5 mps 745 mmHg 89%
    12:00 0°C° 0 mm 5 mps 744 mmHg 87%
    13:00 +1°C° 0 mm 4 mps 744 mmHg 86%
    14:00 0°C° 0 mm 4 mps 744 mmHg 88%
    15:00 +1°C° 0 mm 3 mps 744 mmHg 90%
    16:00 +2°C° 0 mm 2 mps 743 mmHg 91%
    17:00 +1°C° 0 mm 2 mps 743 mmHg 92%
    18:00 +1°C° 0 mm 2 mps 743 mmHg 93%
    19:00 +1°C° 0 mm 1 mps 743 mmHg 93%
    20:00 -1°C° 0 mm 2 mps 744 mmHg 93%
    21:00 -1°C° 0 mm 2 mps 744 mmHg 94%
    22:00 -1°C° 0 mm 2 mps 744 mmHg 94%
    23:00 -1°C° 0 mm 2 mps 745 mmHg 94%

    Tomorrow, 21 January, Sunday

    Time Temperature Precipitation Wind Pressure Humidity
    00:00 -1°C° 0 mm 2 mps 745 mmHg 94%
    01:00 -1°C° 0 mm 2 mps 746 mmHg 94%
    02:00 -1°C° 0 mm 3 mps 747 mmHg 93%
    03:00 -1°C° 0 mm 3 mps 747 mmHg 93%
    04:00 -2°C° 0 mm 3 mps 748 mmHg 93%
    05:00 -2°C° 0 mm 3 mps 748 mmHg 93%
    06:00 -2°C° 0 mm 3 mps 748 mmHg 92%
    07:00 -2°C° 0 mm 3 mps 749 mmHg 92%
    08:00 -1°C° 0 mm 3 mps 750 mmHg 90%
    09:00 -1°C° 0 mm 3 mps 750 mmHg 89%
    10:00 +1°C° 0 mm 2 mps 751 mmHg 88%
    11:00 +1°C° 0 mm 2 mps 751 mmHg 86%
    12:00 +2°C° 0 mm 2 mps 751 mmHg 84%
    13:00 +3°C° 0 mm 2 mps 752 mmHg 81%
    14:00 +3°C° 0 mm 2 mps 752 mmHg 84%
    15:00 +2°C° 0 mm 2 mps 752 mmHg 86%
    16:00 +3°C° 0 mm 1 mps 752 mmHg 89%
    17:00 +1°C° 0 mm 2 mps 752 mmHg 90%
    18:00 +1°C° 0 mm 2 mps 753 mmHg 90%
    19:00 -1°C° 0 mm 2 mps 753 mmHg 91%
    20:00 -1°C° 0 mm 2 mps 753 mmHg 90%
    21:00 -1°C° 0 mm 3 mps 753 mmHg 90%
    22:00 -1°C° 0 mm 3 mps 753 mmHg 89%
    23:00 -1°C° 0 mm 3 mps 752 mmHg 87%

    Day after tomorrow, 22 January, Monday

    Time Temperature Precipitation Wind Pressure Humidity
    00:00 0°C° 0 mm 3 mps 752 mmHg 85%
    01:00 -1°C° 0 mm 4 mps 751 mmHg 83%
    02:00 -1°C° 0.2 mm 4 mps 751 mmHg 84%
    03:00 -1°C° 0.2 mm 5 mps 750 mmHg 84%
    04:00 -1°C° 0.2 mm 5 mps 749 mmHg 85%
    05:00 -1°C° 0.3 mm 5 mps 749 mmHg 86%
    06:00 -1°C° 0.3 mm 5 mps 748 mmHg 87%
    07:00 -1°C° 0.3 mm 6 mps 748 mmHg 87%
    08:00 0°C° 0.8 mm 5 mps 747 mmHg 89%
    09:00 0°C° 0.8 mm 5 mps 746 mmHg 91%
    10:00 0°C° 0.8 mm 5 mps 746 mmHg 93%
    11:00 +1°C° 1.9 mm 4 mps 745 mmHg 94%
    12:00 +1°C° 1.9 mm 4 mps 745 mmHg 95%
    13:00 +3°C° 1.9 mm 4 mps 744 mmHg 96%
    14:00 +3°C° 2.6 mm 4 mps 744 mmHg 97%
    15:00 +4°C° 2.6 mm 3 mps 744 mmHg 97%
    16:00 +4°C° 2.6 mm 3 mps 743 mmHg 97%
    17:00 +4°C° 0.7 mm 4 mps 744 mmHg 97%
    18:00 +4°C° 0.7 mm 4 mps 744 mmHg 97%
    19:00 +4°C° 0.7 mm 4 mps 745 mmHg 97%
    20:00 +3°C° 0.1 mm 4 mps 746 mmHg 97%
    21:00 +3°C° 0.1 mm 4 mps 748 mmHg 96%
    22:00 +2°C° 0.1 mm 3 mps 749 mmHg 96%
    23:00 +2°C° 0 mm 3 mps 750 mmHg 96%

    23 January, Tuesday

    Time Temperature Precipitation Wind Pressure Humidity
    00:00 +3°C° 0 mm 3 mps 751 mmHg 96%
    01:00 +3°C° 0 mm 3 mps 753 mmHg 96%
    02:00 +3°C° 0 mm 3 mps 753 mmHg 97%
    03:00 +3°C° 0 mm 3 mps 754 mmHg 97%
    04:00 +3°C° 0 mm 3 mps 755 mmHg 97%
    05:00 +3°C° 0 mm 3 mps 755 mmHg 96%
    06:00 +3°C° 0 mm 3 mps 756 mmHg 96%
    07:00 +3°C° 0 mm 3 mps 756 mmHg 96%
    08:00 +3°C° 0 mm 4 mps 756 mmHg 95%
    09:00 +3°C° 0 mm 4 mps 757 mmHg 94%
    10:00 +3°C° 0 mm 4 mps 757 mmHg 93%
    11:00 +3°C° 0 mm 5 mps 757 mmHg 89%
    12:00 +5°C° 0 mm 5 mps 757 mmHg 86%
    13:00 +5°C° 0 mm 6 mps 757 mmHg 83%
    14:00 +6°C° 0 mm 5 mps 757 mmHg 84%
    15:00 +6°C° 0 mm 5 mps 757 mmHg 85%
    16:00 +6°C° 0 mm 5 mps 757 mmHg 86%
    17:00 +6°C° 0 mm 5 mps 757 mmHg 86%
    18:00 +6°C° 0 mm 5 mps 757 mmHg 85%
    19:00 +5°C° 0 mm 6 mps 757 mmHg 85%
    20:00 +7°C° 0 mm 6 mps 757 mmHg 87%
    21:00 +7°C° 0 mm 6 mps 757 mmHg 89%
    22:00 +7°C° 0 mm 6 mps 757 mmHg 90%
    23:00 +7°C° 0 mm 6 mps 757 mmHg 91%

    24 January, Wednesday

    Time Temperature Precipitation Wind Pressure Humidity
    00:00 +8°C° 0 mm 6 mps 757 mmHg 92%
    01:00 +8°C° 0 mm 5 mps 757 mmHg 93%
    02:00 +8°C° 0 mm 5 mps 757 mmHg 93%
    03:00 +8°C° 0 mm 5 mps 757 mmHg 93%
    04:00 +8°C° 0 mm 5 mps 757 mmHg 93%
    05:00 +8°C° 0 mm 6 mps 757 mmHg 93%
    06:00 +8°C° 0 mm 6 mps 757 mmHg 92%
    07:00 +8°C° 0 mm 6 mps 756 mmHg 92%
    08:00 +9°C° 0 mm 6 mps 756 mmHg 90%
    09:00 +9°C° 0 mm 6 mps 757 mmHg 88%
    10:00 +9°C° 0 mm 7 mps 757 mmHg 86%
    11:00 +10°C° 0 mm 7 mps 756 mmHg 83%
    12:00 +10°C° 0 mm 7 mps 756 mmHg 81%
    13:00 +11°C° 0 mm 7 mps 756 mmHg 78%
    14:00 +11°C° 0 mm 7 mps 755 mmHg 79%
    15:00 +11°C° 0 mm 7 mps 755 mmHg 79%
    16:00 +11°C° 0 mm 6 mps 755 mmHg 80%
    17:00 +10°C° 0 mm 6 mps 755 mmHg 81%
    18:00 +10°C° 0 mm 6 mps 754 mmHg 82%
    19:00 +9°C° 0 mm 7 mps 754 mmHg 84%
    20:00 +9°C° 0 mm 7 mps 754 mmHg 84%
    21:00 +9°C° 0 mm 7 mps 753 mmHg 83%
    22:00 +8°C° 0 mm 7 mps 753 mmHg 83%
    23:00 +8°C° 0 mm 7 mps 753 mmHg 82%

    25 January, Thursday

    Time Temperature Precipitation Wind Pressure Humidity
    00:00 +8°C° 0 mm 7 mps 752 mmHg 80%
    01:00 +8°C° 0 mm 7 mps 752 mmHg 78%
    02:00 +8°C° 0 mm 7 mps 751 mmHg 78%
    03:00 +8°C° 0 mm 7 mps 750 mmHg 78%
    04:00 +7°C° 0 mm 8 mps 749 mmHg 78%
    05:00 +7°C° 0.1 mm 8 mps 749 mmHg 78%
    06:00 +9°C° 0.1 mm 8 mps 749 mmHg 78%
    07:00 +9°C° 0.1 mm 8 mps 749 mmHg 79%
    08:00 +7°C° 0.4 mm 8 mps 750 mmHg 81%
    09:00 +6°C° 0.4 mm 7 mps 750 mmHg 82%
    10:00 +7°C° 0.4 mm 6 mps 751 mmHg 84%
    11:00 +7°C° 0.1 mm 6 mps 752 mmHg 81%
    12:00 +7°C° 0.1 mm 6 mps 752 mmHg 77%
    13:00 +7°C° 0.1 mm 6 mps 753 mmHg 73%
    14:00 +6°C° 0 mm 5 mps 753 mmHg 73%
    15:00 +6°C° 0 mm 5 mps 754 mmHg 74%
    16:00 +6°C° 0 mm 5 mps 754 mmHg 74%
    17:00 +6°C° 0 mm 5 mps 755 mmHg 76%
    18:00 +5°C° 0 mm 5 mps 755 mmHg 78%
    19:00 +5°C° 0 mm 5 mps 755 mmHg 80%
    20:00 +3°C° 0 mm 5 mps 756 mmHg 80%
    21:00 +3°C° 0 mm 5 mps 756 mmHg 81%
    22:00 +3°C° 0 mm 5 mps 756 mmHg 81%
    23:00 +3°C° 0 mm 5 mps 756 mmHg 82%
    Show more